Location: Staunton
(38.1490°N, 79.0720°W)
Time: 07:56:22
(UTC-04:00)

ISS - Pass Details

Date: 26 May 2018
Orbit: 402 x 407 km, 51.6° (Epoch: 26 May)

Event Time Altitude Azimuth Distance (km) Brightness Sun altitude
Rises 21:17:04 0° 273° (W) 2,314 1.1 -8.8°
Reaches altitude 10° 21:19:43 10° 296° (WNW) 1,456 0.6 -9.2°
Maximum altitude 21:21:51 16° 337° (NNW) 1,150 -0.6 -9.5°
Drops below altitude 10° 21:23:58 10° 18° (NNE) 1,457 -0.8 -9.9°
Sets 21:26:38 0° 41° (NE) 2,318 0.0 -10.3°
